Mount Sterling, KY

11:19 PM EDT on July 25, 2017 (GMT -0400)
Mount Sterling-Montgomery County

Weather History for KIOB - January, 2014

Change the Weather History Date:

Saturday, January 4, 2014

  Actual Average Record
Temperature  
Mean Temperature 28 °F -  
Max Temperature 42 °F 44 °F 59 °F (2015)
Min Temperature 14 °F 25 °F 14 °F (2014)
Degree Days  
Heating Degree Days 37    
Moisture  
Dew Point 15 °F    
Average Humidity 56    
Maximum Humidity 86    
Minimum Humidity 34    
Precipitation  
Precipitation 0.00 in - - ()
Sea Level Pressure  
Sea Level Pressure 30.18 in    
Wind  
Wind Speed 7 mph (SW)    
Max Wind Speed 18 mph    
Max Gust Speed 30 mph    
Visibility 10 miles    
Events      
Averages and records for this station are not official NWS values.
T = Trace of Precipitation, MM = Missing Value Source: NWS Daily Summary

Daily Weather History Graph

Daily Weather History Graph

Search for Another Location

Airport or City:

Trip Planner

Search our weather history database for the weather conditions in past years. The results will help you decide how hot, cold, wet, or windy it might be!

Date:

Astronomy

Jan. 04, 2014 Rise Set
Actual Time 7:52 AM EST 5:29 PM EST
Civil Twilight 7:23 AM EST 5:58 PM EST
Nautical Twilight 6:50 AM EST 6:31 PM EST
Astronomical Twilight 6:18 AM EST 7:03 PM EST
Moon 10:01 AM EST (1/4) 9:43 PM EST (1/4)
Length of Visible Light 10h 35m
Length of Day
9h 37m
Waxing Crescent, 15% of the Moon is Illuminated
Jan 4
Waxing Crescent
Jan 7
First Quarter
Jan 15
Full
Jan 24
Last Quarter
Jan 30
New

Hourly Weather History & Observations

Time (EST) Temp. Windchill Dew Point Humidity Pressure Visibility Wind Dir Wind Speed Gust Speed Precip Events Conditions
12:15 AM 17.6 °F 10.7 °F 8.6 °F 68% 30.27 in 10.0 mi SSW 4.6 mph - N/A   Clear
12:35 AM 17.6 °F 10.7 °F 8.6 °F 68% 30.27 in 10.0 mi SSW 4.6 mph - N/A   Clear
12:55 AM 17.6 °F 10.7 °F 8.6 °F 68% 30.26 in 10.0 mi South 4.6 mph - N/A   Clear
1:15 AM 17.6 °F 9.3 °F 8.6 °F 68% 30.25 in 10.0 mi South 5.8 mph - N/A   Clear
1:35 AM 17.6 °F 10.7 °F 8.6 °F 68% 30.24 in 10.0 mi South 4.6 mph - N/A   Clear
1:55 AM 17.6 °F 10.7 °F 8.6 °F 68% 30.24 in 10.0 mi South 4.6 mph - N/A   Clear
2:15 AM 17.6 °F 12.3 °F 8.6 °F 68% 30.24 in 10.0 mi South 3.5 mph - N/A   Clear
2:35 AM 17.6 °F 12.3 °F 8.6 °F 68% 30.25 in 10.0 mi South 3.5 mph - N/A   Clear
2:55 AM 17.6 °F 10.7 °F 8.6 °F 68% 30.25 in 10.0 mi SSW 4.6 mph - N/A   Clear
3:15 AM 17.6 °F 12.3 °F 8.6 °F 68% 30.25 in 10.0 mi SSW 3.5 mph - N/A   Clear
3:35 AM 14.0 °F - 10.4 °F 86% 30.25 in 10.0 mi Calm Calm - N/A   Clear
3:55 AM 17.6 °F 12.3 °F 8.6 °F 68% 30.24 in 10.0 mi SSW 3.5 mph - N/A   Clear
4:15 AM 17.6 °F 10.7 °F 8.6 °F 68% 30.25 in 10.0 mi SW 4.6 mph - N/A   Clear
4:35 AM 17.6 °F 9.3 °F 8.6 °F 68% 30.24 in 10.0 mi SW 5.8 mph - N/A   Clear
4:55 AM 17.6 °F 8.2 °F 10.4 °F 73% 30.24 in 10.0 mi SSW 6.9 mph - N/A   Clear
5:15 AM 17.6 °F 10.7 °F 10.4 °F 73% 30.25 in 10.0 mi SW 4.6 mph - N/A   Clear
5:35 AM 17.6 °F 8.2 °F 10.4 °F 73% 30.25 in 10.0 mi SW 6.9 mph - N/A   Clear
5:55 AM 19.4 °F 9.5 °F 10.4 °F 68% 30.24 in 10.0 mi SSW 8.1 mph - N/A   Clear
6:15 AM 19.4 °F 10.4 °F 10.4 °F 68% 30.24 in 10.0 mi SW 6.9 mph - N/A   Clear
6:35 AM 19.4 °F 9.5 °F 10.4 °F 68% 30.24 in 10.0 mi SW 8.1 mph - N/A   Clear
6:55 AM 19.4 °F 9.5 °F 10.4 °F 68% 30.25 in 10.0 mi SW 8.1 mph - N/A   Clear
7:15 AM 19.4 °F 11.5 °F 10.4 °F 68% 30.23 in 10.0 mi SW 5.8 mph - N/A   Clear
7:35 AM 19.4 °F 10.4 °F 10.4 °F 68% 30.23 in 10.0 mi SW 6.9 mph - N/A   Clear
7:55 AM 21.2 °F 12.6 °F 12.2 °F 68% 30.23 in 10.0 mi SW 6.9 mph - N/A   Clear
8:15 AM 21.2 °F 10.1 °F 12.2 °F 68% 30.23 in 10.0 mi SW 10.4 mph - N/A   Clear
8:35 AM 21.2 °F 10.9 °F 12.2 °F 68% 30.23 in 10.0 mi SW 9.2 mph - N/A   Clear
8:55 AM 23.0 °F 15.8 °F 12.2 °F 63% 30.25 in 10.0 mi SW 5.8 mph - N/A   Clear
9:15 AM 24.8 °F 15.3 °F 14.0 °F 64% 30.24 in 10.0 mi SW 9.2 mph - N/A   Clear
9:35 AM 26.6 °F 16.8 °F 14.0 °F 59% 30.24 in 10.0 mi SW 10.4 mph - N/A   Clear
9:55 AM 28.4 °F 19.1 °F 14.0 °F 55% 30.23 in 10.0 mi SW 10.4 mph - N/A   Clear
10:15 AM 30.2 °F 20.8 °F 15.8 °F 55% 30.23 in 10.0 mi SW 11.5 mph - N/A   Clear
10:35 AM 32.0 °F 24.2 °F 15.8 °F 51% 30.23 in 10.0 mi SW 9.2 mph - N/A   Clear
10:55 AM 32.0 °F 23.0 °F 15.8 °F 51% 30.22 in 10.0 mi SW 11.5 mph - N/A   Clear
11:15 AM 32.0 °F 23.6 °F 17.6 °F 55% 30.22 in 10.0 mi SW 10.4 mph 16.1 mph N/A   Clear
11:35 AM 33.8 °F 24.8 °F 17.6 °F 52% 30.21 in 10.0 mi SW 12.7 mph 19.6 mph N/A   Clear
11:55 AM 35.6 °F 28.0 °F 17.6 °F 48% 30.19 in 10.0 mi WSW 10.4 mph 18.4 mph N/A   Clear
12:15 PM 37.4 °F 27.5 °F 14.0 °F 38% 30.18 in 10.0 mi WSW 18.4 mph 29.9 mph N/A   Clear
12:35 PM 37.4 °F 28.5 °F 15.8 °F 41% 30.17 in 10.0 mi WSW 15.0 mph 21.9 mph N/A   Clear
12:55 PM 37.4 °F 28.9 °F 14.0 °F 38% 30.16 in 10.0 mi WSW 13.8 mph 25.3 mph N/A   Clear
1:15 PM 39.2 °F 30.2 °F 17.6 °F 42% 30.15 in 10.0 mi SW 17.3 mph 24.2 mph N/A   Clear
1:35 PM 39.2 °F 31.6 °F 17.6 °F 42% 30.15 in 10.0 mi WSW 12.7 mph 20.7 mph N/A   Clear
1:55 PM 41.0 °F 33.5 °F 17.6 °F 39% 30.14 in 10.0 mi SW 13.8 mph 20.7 mph N/A   Clear
2:15 PM 39.2 °F 31.6 °F 15.8 °F 39% 30.13 in 10.0 mi SW 12.7 mph 20.7 mph N/A   Clear
2:35 PM 41.0 °F 35.2 °F 17.6 °F 39% 30.12 in 10.0 mi SW 9.2 mph - N/A   Clear
2:55 PM 42.8 °F 37.0 °F 17.6 °F 36% 30.12 in 10.0 mi SW 10.4 mph - N/A   Clear
3:15 PM 42.8 °F 37.0 °F 17.6 °F 36% 30.12 in 10.0 mi SW 10.4 mph - N/A   Clear
3:35 PM 42.8 °F 37.0 °F 17.6 °F 36% 30.12 in 10.0 mi SW 10.4 mph - N/A   Clear
3:55 PM 42.8 °F 36.2 °F 15.8 °F 34% 30.12 in 10.0 mi SW 12.7 mph 16.1 mph N/A   Clear
4:15 PM 42.8 °F 38.0 °F 15.8 °F 34% 30.11 in 10.0 mi SW 8.1 mph - N/A   Clear
4:35 PM 42.8 °F 37.0 °F 17.6 °F 36% 30.12 in 10.0 mi SSW 10.4 mph - N/A   Clear
4:55 PM 41.0 °F 34.3 °F 17.6 °F 39% 30.10 in 10.0 mi SSW 11.5 mph - N/A   Clear
5:15 PM 41.0 °F 37.1 °F 17.6 °F 39% 30.10 in 10.0 mi SSW 5.8 mph - N/A   Clear
5:35 PM 37.4 °F 32.1 °F 17.6 °F 45% 30.09 in 10.0 mi SSW 6.9 mph - N/A   Clear
5:55 PM 37.4 °F 32.1 °F 17.6 °F 45% 30.09 in 10.0 mi SSW 6.9 mph - N/A   Clear
6:15 PM 35.6 °F 30.7 °F 17.6 °F 48% 30.10 in 10.0 mi SSW 5.8 mph - N/A   Clear
6:35 PM 35.6 °F 30.7 °F 17.6 °F 48% 30.10 in 10.0 mi SSW 5.8 mph - N/A   Clear
6:55 PM 33.8 °F 29.6 °F 17.6 °F 52% 30.11 in 10.0 mi SSW 4.6 mph - N/A   Clear
7:15 PM 35.6 °F 28.6 °F 17.6 °F 48% 30.10 in 10.0 mi SSW 9.2 mph - N/A   Clear
7:35 PM 35.6 °F 28.6 °F 17.6 °F 48% 30.10 in 10.0 mi SSW 9.2 mph - N/A   Clear
7:55 PM 35.6 °F 28.6 °F 17.6 °F 48% 30.10 in 10.0 mi SSW 9.2 mph - N/A   Clear
8:15 PM 35.6 °F 29.2 °F 17.6 °F 48% 30.10 in 10.0 mi SSW 8.1 mph - N/A   Clear
8:35 PM 33.8 °F 27.7 °F 17.6 °F 52% 30.10 in 10.0 mi SSW 6.9 mph - N/A   Clear
8:55 PM 33.8 °F 29.6 °F 17.6 °F 52% 30.11 in 10.0 mi SW 4.6 mph - N/A   Clear
9:15 PM 33.8 °F 29.6 °F 17.6 °F 52% 30.11 in 10.0 mi SW 4.6 mph - N/A   Clear
9:35 PM 33.8 °F 29.6 °F 19.4 °F 56% 30.11 in 10.0 mi SW 4.6 mph - N/A   Clear
9:55 PM 33.8 °F 28.6 °F 19.4 °F 56% 30.11 in 10.0 mi SW 5.8 mph - N/A   Clear
10:15 PM 33.8 °F 28.6 °F 21.2 °F 60% 30.12 in 10.0 mi SW 5.8 mph - N/A   Clear
10:35 PM 33.8 °F 26.4 °F 21.2 °F 60% 30.11 in 10.0 mi SSW 9.2 mph - N/A   Clear
10:55 PM 33.8 °F 27.7 °F 23.0 °F 65% 30.10 in 10.0 mi SSW 6.9 mph - N/A   Clear
11:15 PM 33.8 °F 27.0 °F 23.0 °F 65% 30.10 in 10.0 mi SSW 8.1 mph - N/A   Clear
11:35 PM 33.8 °F 26.4 °F 24.8 °F 70% 30.09 in 10.0 mi SSW 9.2 mph - N/A   Clear
11:55 PM 35.6 °F 28.6 °F 26.6 °F 70% 30.08 in 10.0 mi SSW 9.2 mph - N/A   Clear